RH
31 19 31 36 38 34 39 62 66 81 77 68 64 66 63 57 73 96 93 98 98 97 98 98 97 98 100 99 97 97 97 98 97 97 96 89 33 20 11 6 10 12 10
19 33 46 49 42 42 43 48 66 74 74 86 76 69 66 73 90 100 100 97 98 97 96 96 96 97 98 98 97 96 97 97 97 94 95 60 21 19 13 9 12 10 7
23 57 69 62 53 54 55 51 68 67 72 81 76 62 67 70 88 97 97 96 98 96 96 96 97 95 97 98 98 98 97 97 96 94 69 26 22 32 10 11 11 8 6
32 71 59 51 57 52 52 43 36 47 45 60 54 53 63 75 84 97 95 97 97 96 93 96 96 96 96 97 97 97 96 96 92 88 44 26 35 31 12 12 9 7 7
19 52 76 59 55 59 52 40 48 30 28 38 46 48 44 66 90 95 97 93 94 93 95 92 94 96 99 96 97 97 97 96 93 82 48 31 39 15 11 11 8 8 8
54 48 43 55 62 66 61 50 71 99 81 57 54 64 66 66 80 96 95 100 94 99 95 91 96 96 97 94 98 98 96 95 94 75 26 16 30 17 13 11 10 8 8
44 42 54 99 76 73 58 77 100 97 90 71 56 43 64 69 74 92 98 92 99 90 100 98 97 98 96 97 97 96 96 81 70 28 20 18 26 25 22 14 10 11 14
45 42 36 55 90 87 55 49 65 100 54 39 62 51 63 72 81 90 97 98 96 86 88 89 88 93 95 96 96 97 95 79 57 31 23 30 42 39 18 14 15 17 17
44 38 29 45 77 76 55 44 34 41 79 39 40 64 80 80 86 96 99 92 97 100 91 82 80 91 91 96 92 89 98 97 90 45 46 53 36 31 18 13 13 12 13
50 33 33 54 79 71 59 40 30 33 41 37 37 78 85 88 99 93 94 100 95 100 87 92 80 88 85 94 97 95 95 99 98 96 49 35 42 32 22 15 15 15 15
50 41 58 96 93 74 46 30 33 48 59 64 66 87 84 100 100 100 97 98 96 98 97 98 97 95 92 92 92 90 95 98 97 96 93 47 41 33 28 18 18 18 15
51 64 66 97 93 46 44 49 59 91 95 92 99 90 92 95 98 97 94 98 93 95 96 96 93 95 92 92 98 96 97 94 100 87 85 91 76 47 27 23 24 30 17
59 80 99 76 66 49 53 88 89 88 98 99 95 95 96 96 96 96 95 95 88 96 96 96 96 97 94 92 95 98 99 96 95 90 86 78 71 91 78 48 30 29 24
96 94 90 76 54 45 65 85 90 88 98 99 94 86 99 98 96 86 96 96 97 96 96 94 90 95 93 91 91 95 96 97 96 92 86 82 82 95 93 89 72 34 28
88 86 82 75 58 51 57 69 88 90 97 99 95 86 91 99 92 84 96 97 96 96 96 95 95 95 94 94 94 95 95 97 97 97 95 95 96 87 44 51 87 59 39
80 93 78 80 73 62 51 50 52 73 97 98 98 97 91 100 94 86 86 95 96 96 94 94 95 95 97 97 94 93 96 97 99 98 98 96 93 92 75 46 45 83 63
95 91 85 78 77 62 54 51 49 50 62 97 98 96 96 97 100 98 87 89 96 96 95 97 98 96 92 90 92 96 97 97 97 96 97 99 96 96 74 56 43 88 48
96 92 98 93 96 93 74 60 58 56 52 59 91 97 96 97 96 98 97 96 92 92 95 96 96 96 96 95 94 95 96 93 92 93 94 95 96 97 98 98 93 83 86
90 96 94 97 100 95 90 80 66 63 61 60 57 81 92 98 98 96 98 97 96 96 96 96 96 98 98 95 92 93 94 94 98 97 97 97 96 89 71 75 90 96 74
93 96 97 96 93 86 94 85 68 68 64 63 64 65 85 88 94 98 97 96 96 96 96 96 97 97 95 94 94 93 92 92 94 95 96 93 92 88 91 88 56 48 59
90 84 94 91 85 88 89 70 68 71 72 66 66 66 68 92 98 98 92 98 97 95 96 96 96 96 96 95 93 94 96 96 95 97 98 98 98 95 87 64 78 94 92
96 98 98 96 94 80 76 68 74 78 74 73 69 69 69 84 97 98 98 95 96 97 96 96 96 96 96 96 96 96 97 97 97 98 99 98 97 96 96 92 66 36 27
91 92 90 89 82 82 80 82 83 78 74 68 64 67 69 88 100 100 100 98 97 97 97 96 94 96 96 97 97 97 98 98 98 98 98 97 88 61 39 29 28 28 31
83 88 90 86 87 86 85 86 87 82 75 74 77 82 90 99 100 98 99 97 97 97 96 96 96 96 96 96 96 96 96 96 97 97 96 96 96 92 91 92 94 97 97
85 87 86 85 84 86 88 89 90 90 89 90 89 88 87 93 100 98 96 97 97 96 96 96 96 96 96 96 96 96 97 97 97 98 98 97 98 98 98 98 98 98 98
83 88 92 87 87 89 92 93 95 96 96 93 91 91 92 92 94 94 95 96 96 96 96 97 97 97 96 96 97 97 97 98 97 97 97 97 97 97 97 97 97 97 98
Wind_Speed
40 39 31 31 32 30 32 29 27 26 28 27 29 29 31 34 30 29 34 32 32 30 34 38 38 39 43 47 40 38 33 28 26 31 30 22 21 22 23 24 25 25 21
42 37 33 33 33 29 30 32 31 28 29 29 32 31 30 30 29 26 22 26 23 25 28 30 34 29 33 37 35 36 30 25 32 31 25 18 15 20 25 27 27 23 19
44 36 32 30 35 31 31 34 36 33 32 32 35 34 31 28 27 19 15 16 16 19 20 22 29 35 35 35 41 37 29 30 32 28 21 18 16 20 28 29 26 22 20
41 39 36 36 36 33 31 32 30 31 33 35 34 30 29 26 26 15 9 10 9 12 16 19 22 31 35 36 29 28 33 35 30 28 22 18 15 20 28 26 22 20 20
49 44 40 39 34 35 34 32 31 27 28 29 28 25 25 24 22 22 13 11 9 9 10 13 17 31 30 33 33 35 38 35 33 27 23 19 18 25 26 21 20 22 22
42 44 44 38 31 33 33 30 28 25 23 24 24 24 21 21 21 22 16 14 12 5 6 9 12 18 33 37 35 37 35 32 30 24 21 18 20 21 23 21 22 23 21
39 33 33 38 33 30 26 26 27 27 27 27 26 28 24 22 19 22 20 14 12 10 5 8 15 17 19 26 33 36 35 33 28 25 21 19 19 20 22 21 22 21 18
30 32 31 37 40 36 30 28 28 30 31 27 26 27 26 23 24 21 26 22 13 11 10 12 14 15 17 17 23 32 36 33 30 27 23 21 20 22 24 22 21 21 27
36 34 37 34 33 30 29 29 31 36 38 31 29 27 26 23 22 23 24 29 22 15 12 13 14 14 14 15 18 20 26 32 32 27 23 23 25 24 26 28 27 30 30
36 36 39 34 33 35 30 30 30 34 35 31 29 27 26 24 21 25 25 26 24 23 18 16 13 15 16 15 17 20 21 28 32 31 26 25 24 25 26 27 28 28 26
39 37 32 30 28 24 29 27 33 33 30 29 25 26 22 21 24 25 25 30 27 31 26 22 16 14 15 17 18 20 21 24 28 29 30 24 24 24 25 24 25 25 25
36 30 33 28 24 20 21 25 21 16 14 15 18 17 22 22 26 29 24 22 24 27 30 24 20 18 18 18 15 17 18 23 27 26 26 32 36 28 26 23 22 26 25
35 14 14 11 13 15 18 19 18 14 12 11 9 12 11 14 16 18 23 22 30 26 26 23 21 20 18 15 14 16 20 23 26 29 30 30 30 37 35 25 25 24 26
13 6 8 6 9 13 11 13 12 12 12 12 13 11 8 6 8 13 21 21 26 28 26 24 22 20 18 18 18 20 21 23 24 26 28 31 32 32 33 31 32 26 27
26 10 6 5 7 9 9 7 7 11 12 10 11 10 9 8 8 4 6 16 20 22 23 22 21 19 17 16 18 20 21 23 26 29 31 33 33 33 31 30 30 28 27
24 14 7 7 5 7 10 9 7 8 8 12 13 14 10 11 11 9 9 12 14 17 18 18 17 16 16 17 19 21 21 22 24 28 31 33 32 32 30 30 31 30 27
12 13 7 5 5 6 9 11 10 9 8 8 7 12 13 12 14 13 11 13 16 17 16 16 16 16 16 16 18 19 21 23 25 26 27 30 34 36 35 34 34 32 29
9 9 6 7 9 9 9 10 12 11 9 10 7 8 8 13 14 13 17 17 17 18 19 18 16 16 16 16 16 17 20 23 24 26 27 28 29 32 36 36 30 29 33
14 8 10 14 16 15 14 12 12 12 12 11 12 12 11 10 10 13 15 15 15 16 16 16 16 16 16 16 17 19 20 21 23 25 27 28 28 26 25 28 32 29 29
17 16 15 19 18 19 18 16 14 15 15 16 14 16 17 15 13 12 13 14 14 15 15 16 16 17 17 17 19 20 21 22 22 23 25 27 29 30 30 29 29 29 30
19 18 22 23 22 19 19 19 19 17 16 17 17 17 18 20 18 15 14 13 13 14 15 17 18 18 18 19 20 21 21 21 22 23 25 28 29 29 30 31 34 34 32
20 14 14 15 18 20 20 21 18 17 16 16 18 19 19 20 21 21 19 18 18 17 18 19 19 19 19 20 21 22 22 21 22 23 26 28 28 29 29 29 29 30 30
15 18 18 18 18 18 18 18 16 16 15 15 16 17 18 19 21 22 23 24 24 24 23 23 21 20 20 20 21 22 22 21 22 24 26 27 26 25 26 27 27 28 28
9 11 12 14 13 13 13 13 13 12 12 13 13 13 14 17 19 22 24 25 26 26 26 26 24 22 21 21 21 22 21 22 23 24 26 28 29 30 31 31 30 28 27
13 11 12 11 11 10 9 9 10 10 10 9 9 9 11 13 16 18 20 22 23 23 23 23 22 20 19 20 20 20 20 21 22 22 22 22 23 24 25 26 27 27 28
16 14 12 11 11 10 10 10 9 9 9 9 9 9 9 9 10 11 12 12 13 14 15 15 15 14 14 14 14 15 15 17 18 19 21 22 23 24 25 26 26 27 27
Wind_Direction
309 316 309 302 304 295 294 289 296 287 271 273 285 290 298 303 290 270 265 265 263 261 248 241 237 234 241 237 222 212 206 213 219 217 199 198 216 221 216 206 199 198 197
315 314 310 297 302 296 290 289 288 282 276 280 282 290 301 312 293 272 259 262 258 256 246 237 229 206 219 218 198 204 212 211 207 198 203 209 220 218 210 201 198 199 199
309 304 304 301 296 293 291 290 283 282 281 280 287 291 289 291 307 299 280 272 254 250 247 237 230 228 220 201 203 209 211 206 199 196 215 221 211 211 207 200 199 198 202
301 293 297 295 290 287 290 285 287 279 276 276 280 285 285 286 306 297 271 294 259 256 246 231 221 213 212 211 207 220 222 203 199 212 220 221 218 206 205 203 202 203 204
298 295 295 296 289 289 295 290 293 283 272 275 280 287 279 279 275 302 293 297 274 235 234 227 219 210 207 219 219 219 218 201 200 209 224 227 218 205 203 205 203 205 209
290 290 289 285 276 276 285 286 287 284 284 279 277 279 284 282 264 270 296 297 303 271 230 222 215 209 218 221 226 228 217 206 207 222 225 219 207 204 207 206 209 216 213
291 284 290 282 280 278 279 284 280 280 277 284 281 279 274 275 274 253 265 272 294 286 215 207 203 203 208 213 213 213 216 214 216 233 226 220 208 208 215 208 207 213 215
289 289 288 283 275 273 281 273 277 274 286 289 287 278 273 268 261 257 248 254 246 262 259 216 206 200 202 209 218 225 223 218 217 226 227 220 224 221 215 206 207 211 214
291 287 283 281 277 279 266 277 278 272 274 277 279 274 272 269 267 253 255 238 233 232 228 229 217 217 222 224 227 225 223 229 220 220 219 226 227 226 217 211 208 211 216
301 286 291 281 253 267 272 278 277 273 272 273 269 268 270 267 249 253 251 236 226 234 229 233 219 218 221 223 224 229 231 224 223 217 215 224 225 229 224 217 214 219 222
305 296 293 268 256 260 265 278 277 275 273 272 262 260 261 241 242 235 253 244 232 230 223 227 227 221 210 208 209 215 216 219 222 222 213 220 221 226 227 222 220 221 223
300 294 291 255 247 267 281 277 273 276 274 284 264 262 255 235 230 238 237 233 234 229 226 224 225 224 219 215 210 218 220 219 219 227 223 224 216 222 223 218 219 225 229
313 298 239 244 257 280 274 271 274 277 279 260 258 261 251 240 245 236 233 237 224 223 216 209 217 216 216 223 228 230 231 225 223 223 223 224 227 218 215 224 226 224 231
279 270 245 266 281 280 282 277 266 266 248 257 265 268 245 242 253 262 239 225 206 196 197 209 211 213 216 221 223 230 230 226 224 222 223 228 232 232 223 224 227 234 233
305 236 264 300 290 291 286 291 294 267 256 256 263 266 238 235 237 247 199 212 196 196 204 208 211 214 222 225 226 231 234 235 235 233 232 237 232 221 225 230 227 229 236
287 236 249 257 277 296 295 298 297 302 278 249 254 254 247 229 227 216 193 190 196 202 203 205 214 224 231 230 231 228 227 232 232 234 234 227 228 232 231 235 231 233 235
196 164 190 235 281 296 297 298 299 293 294 276 265 256 244 232 229 226 220 217 211 211 217 224 230 232 231 232 232 227 227 229 230 232 234 236 235 233 229 228 224 230 229
286 186 244 266 275 287 297 294 296 289 275 266 260 256 252 241 234 230 226 222 224 224 223 226 230 231 233 236 235 234 233 233 234 234 233 234 233 233 235 233 228 225 236
278 225 269 277 278 289 291 300 282 288 294 274 249 239 249 241 226 220 221 230 237 238 234 231 226 226 233 239 240 242 240 239 235 235 234 233 228 224 222 224 231 233 234
274 268 255 264 272 280 283 283 288 277 281 284 265 244 232 234 240 242 242 247 242 235 229 224 224 228 235 239 242 243 244 243 241 238 234 230 226 226 228 228 225 228 233
267 265 263 264 280 267 276 286 284 278 272 275 267 255 239 230 230 232 240 236 229 232 228 225 224 230 236 239 242 243 244 243 242 237 230 225 224 225 224 226 232 238 240
254 260 260 258 270 282 277 279 277 273 271 263 258 254 248 236 232 234 235 237 234 231 232 231 231 236 242 246 246 245 245 242 237 233 228 225 226 227 230 236 239 241 242
265 258 261 267 268 273 273 272 269 265 261 259 255 250 245 239 235 235 237 239 239 237 236 239 242 243 246 248 249 246 244 241 233 227 223 222 226 235 240 243 243 244 247
276 268 265 270 269 266 265 263 261 260 257 255 253 252 248 242 239 240 242 243 243 242 240 242 245 246 248 247 245 242 237 230 229 233 236 236 235 236 241 245 248 249 250
274 266 266 265 266 270 267 260 255 251 250 251 249 246 245 241 240 243 245 245 244 242 241 242 244 247 248 245 242 240 237 235 235 236 237 237 238 239 241 245 248 251 253
267 265 260 263 266 264 260 259 257 256 253 251 249 245 242 239 235 233 232 232 234 235 234 235 236 237 235 233 232 232 233 235 236 238 240 243 245 248 251 253 254 255 256